Orbital Elements at Epoch 2459200.5 (2020-Dec-17.0) TDB
Reference: JPL 11 (heliocentric ecliptic J2000)
Element | Value | Uncertainty (1-sigma) | Units |
e | .07381980219752053 | 8.2397e-08 | |
a | 3.05079156219389 | 3.7232e-08 | au |
q | 2.825582732526872 | 2.777e-07 | au |
i | 4.578609014509715 | 9.9527e-06 | deg |
node | 13.77866717718654 | 6.7932e-05 | deg |
peri | 302.8736588077166 | 9.877e-05 | deg |
M | 317.094873138501 | 6.8664e-05 | deg |
tp | 2459432.465779805519 (2021-Aug-05.96577981) | 0.00037032 | TDB |
period | 1946.333383410238 5.33 | 3.563e-05 9.755e-08 | d yr |
n | .1849631738675886 | 3.386e-09 | deg/d |
Q | 3.276000391860908 | 3.9981e-08 | au |
|
| | Orbit Determination Parameters
Additional Information
|